TimeEDT,TemperatureF,Dew PointF,Humidity,Sea Level PressureIn,VisibilityMPH,Wind Direction,Wind SpeedMPH,Gust SpeedMPH,PrecipitationIn,Events,Conditions,WindDirDegrees,DateUTC
12:02 AM,66.2,62.6,88,30.12,10.0,NNW,3.5,-,N/A,,Scattered Clouds,340,2013-09-09 04:02:00
12:22 AM,64.4,62.6,94,30.13,10.0,North,3.5,-,N/A,,Mostly Cloudy,350,2013-09-09 04:22:00
12:42 AM,64.4,60.8,88,30.14,10.0,Calm,Calm,-,N/A,,Overcast,0,2013-09-09 04:42:00
1:02 AM,64.4,60.8,88,30.14,10.0,Calm,Calm,-,N/A,,Overcast,0,2013-09-09 05:02:00
1:22 AM,64.4,60.8,88,30.15,10.0,Calm,Calm,-,N/A,,Overcast,0,2013-09-09 05:22:00
1:42 AM,64.4,60.8,88,30.15,10.0,Calm,Calm,-,N/A,,Mostly Cloudy,0,2013-09-09 05:42:00
2:02 AM,64.4,59.0,83,30.15,10.0,NE,3.5,-,N/A,,Overcast,50,2013-09-09 06:02:00
2:22 AM,64.4,53.6,68,30.15,10.0,Calm,Calm,-,N/A,,Mostly Cloudy,0,2013-09-09 06:22:00
2:42 AM,64.4,51.8,64,30.15,10.0,NE,3.5,-,N/A,,Overcast,40,2013-09-09 06:42:00
3:02 AM,64.4,51.8,64,30.15,10.0,Calm,Calm,-,N/A,,Overcast,0,2013-09-09 07:02:00
3:22 AM,64.4,51.8,64,30.16,10.0,ENE,4.6,-,N/A,,Overcast,70,2013-09-09 07:22:00
3:42 AM,64.4,51.8,64,30.16,10.0,NE,5.8,-,N/A,,Overcast,40,2013-09-09 07:42:00
4:02 AM,64.4,51.8,64,30.17,10.0,NNE,3.5,-,N/A,,Overcast,30,2013-09-09 08:02:00
4:23 AM,64.4,50.0,59,30.18,10.0,Calm,Calm,-,N/A,,Overcast,0,2013-09-09 08:23:00
4:43 AM,64.4,50.0,59,30.18,10.0,Calm,Calm,-,N/A,,Overcast,0,2013-09-09 08:43:00
5:03 AM,62.6,50.0,63,30.18,10.0,Calm,Calm,-,N/A,,Overcast,0,2013-09-09 09:03:00
5:23 AM,62.6,50.0,63,30.18,10.0,NNE,3.5,-,N/A,,Overcast,20,2013-09-09 09:23:00
5:43 AM,62.6,50.0,63,30.19,10.0,Calm,Calm,-,N/A,,Overcast,0,2013-09-09 09:43:00
6:03 AM,62.6,48.2,59,30.20,10.0,Calm,Calm,-,N/A,,Overcast,0,2013-09-09 10:03:00
6:23 AM,62.6,46.4,55,30.20,10.0,NE,3.5,-,N/A,,Overcast,40,2013-09-09 10:23:00
6:43 AM,62.6,46.4,55,30.22,10.0,NE,3.5,-,N/A,,Overcast,40,2013-09-09 10:43:00
7:03 AM,62.6,46.4,55,30.22,10.0,NE,3.5,-,N/A,,Overcast,40,2013-09-09 11:03:00
7:23 AM,62.6,46.4,55,30.22,10.0,NE,3.5,-,N/A,,Overcast,40,2013-09-09 11:23:00
7:43 AM,62.6,46.4,55,30.23,10.0,ENE,3.5,-,N/A,,Overcast,60,2013-09-09 11:43:00
8:03 AM,62.6,46.4,55,30.23,10.0,Calm,Calm,-,N/A,,Overcast,0,2013-09-09 12:03:00
8:23 AM,62.6,44.6,52,30.23,10.0,Calm,Calm,-,N/A,,Overcast,0,2013-09-09 12:23:00
8:43 AM,62.6,44.6,52,30.24,10.0,NE,3.5,-,N/A,,Overcast,40,2013-09-09 12:43:00
9:03 AM,62.6,44.6,52,30.24,10.0,NE,3.5,-,N/A,,Overcast,40,2013-09-09 13:03:00
9:23 AM,62.6,44.6,52,30.24,10.0,Calm,Calm,-,N/A,,Overcast,0,2013-09-09 13:23:00
9:43 AM,64.4,44.6,49,30.25,10.0,Calm,Calm,-,N/A,,Overcast,0,2013-09-09 13:43:00
10:03 AM,64.4,44.6,49,30.25,10.0,Calm,Calm,-,N/A,,Overcast,0,2013-09-09 14:03:00
10:23 AM,64.4,44.6,49,30.25,10.0,Calm,Calm,-,N/A,,Overcast,0,2013-09-09 14:23:00
10:43 AM,64.4,46.4,52,30.25,10.0,Calm,Calm,-,N/A,,Overcast,0,2013-09-09 14:43:00
11:03 AM,64.4,46.4,52,30.25,10.0,SE,3.5,-,N/A,,Overcast,130,2013-09-09 15:03:00
11:23 AM,64.4,46.4,52,30.25,10.0,South,3.5,-,N/A,,Overcast,190,2013-09-09 15:23:00
11:43 AM,66.2,46.4,49,30.25,10.0,SSE,3.5,-,N/A,,Overcast,160,2013-09-09 15:43:00
12:03 PM,66.2,46.4,49,30.24,10.0,ESE,5.8,-,N/A,,Overcast,110,2013-09-09 16:03:00
12:23 PM,66.2,46.4,49,30.24,10.0,ESE,4.6,-,N/A,,Overcast,120,2013-09-09 16:23:00
12:43 PM,68.0,50.0,52,30.23,10.0,SSE,4.6,-,N/A,,Overcast,150,2013-09-09 16:43:00
1:03 PM,68.0,50.0,52,30.22,10.0,Calm,Calm,-,N/A,,Overcast,0,2013-09-09 17:03:00
1:24 PM,68.0,50.0,52,30.22,10.0,Calm,Calm,-,N/A,,Overcast,0,2013-09-09 17:24:00
1:44 PM,68.0,50.0,52,30.21,10.0,SSE,4.6,-,N/A,,Scattered Clouds,160,2013-09-09 17:44:00
2:04 PM,69.8,50.0,49,30.20,10.0,Calm,Calm,-,N/A,,Clear,0,2013-09-09 18:04:00
2:24 PM,69.8,51.8,53,30.20,10.0,South,3.5,-,N/A,,Clear,190,2013-09-09 18:24:00
2:44 PM,69.8,51.8,53,30.19,10.0,Calm,Calm,-,N/A,,Clear,0,2013-09-09 18:44:00
3:04 PM,71.6,51.8,50,30.18,10.0,Calm,Calm,-,N/A,,Clear,0,2013-09-09 19:04:00
3:24 PM,69.8,53.6,56,30.18,10.0,WNW,3.5,-,N/A,,Clear,300,2013-09-09 19:24:00
3:44 PM,69.8,53.6,56,30.18,10.0,Calm,Calm,-,N/A,,Clear,0,2013-09-09 19:44:00
4:04 PM,69.8,53.6,56,30.17,10.0,Calm,Calm,-,N/A,,Clear,0,2013-09-09 20:04:00
4:24 PM,71.6,53.6,53,30.17,10.0,Calm,Calm,-,N/A,,Clear,0,2013-09-09 20:24:00
4:44 PM,71.6,53.6,53,30.15,10.0,Calm,Calm,-,N/A,,Clear,0,2013-09-09 20:44:00
5:04 PM,71.6,55.4,57,30.15,10.0,Calm,Calm,-,N/A,,Clear,0,2013-09-09 21:04:00
5:24 PM,71.6,55.4,57,30.15,10.0,Calm,Calm,-,N/A,,Clear,0,2013-09-09 21:24:00
5:44 PM,71.6,55.4,57,30.15,10.0,Calm,Calm,-,N/A,,Clear,0,2013-09-09 21:44:00
6:04 PM,71.6,55.4,57,30.14,10.0,North,3.5,-,N/A,,Clear,360,2013-09-09 22:04:00
6:24 PM,73.4,57.2,57,30.14,10.0,Calm,Calm,-,N/A,,Clear,0,2013-09-09 22:24:00
6:44 PM,71.6,57.2,60,30.14,10.0,Calm,Calm,-,N/A,,Clear,0,2013-09-09 22:44:00
7:04 PM,71.6,57.2,60,30.15,10.0,Calm,Calm,-,N/A,,Clear,0,2013-09-09 23:04:00
7:24 PM,69.8,59.0,68,30.15,10.0,Calm,Calm,-,N/A,,Clear,0,2013-09-09 23:24:00
7:44 PM,69.8,59.0,68,30.15,10.0,NNW,3.5,-,N/A,,Clear,330,2013-09-09 23:44:00
8:04 PM,69.8,59.0,68,30.15,10.0,Calm,Calm,-,N/A,,Clear,0,2013-09-10 00:04:00
8:24 PM,68.0,59.0,73,30.16,10.0,North,3.5,-,N/A,,Clear,360,2013-09-10 00:24:00
8:44 PM,68.0,59.0,73,30.16,10.0,NNW,3.5,-,N/A,,Clear,340,2013-09-10 00:44:00
9:04 PM,68.0,59.0,73,30.16,10.0,NNE,5.8,-,N/A,,Clear,20,2013-09-10 01:04:00
9:24 PM,68.0,59.0,73,30.17,10.0,North,3.5,-,N/A,,Clear,360,2013-09-10 01:24:00
9:44 PM,66.2,60.8,83,30.17,10.0,North,3.5,-,N/A,,Clear,350,2013-09-10 01:44:00
10:04 PM,66.2,60.8,83,30.17,10.0,North,5.8,-,N/A,,Clear,360,2013-09-10 02:04:00
10:24 PM,66.2,60.8,83,30.17,10.0,North,3.5,-,N/A,,Clear,350,2013-09-10 02:24:00
10:45 PM,66.2,60.8,83,30.17,10.0,Calm,Calm,-,N/A,,Clear,0,2013-09-10 02:45:00
11:05 PM,66.2,60.8,83,30.17,10.0,Calm,Calm,-,N/A,,Clear,0,2013-09-10 03:05:00
11:25 PM,64.4,60.8,88,30.17,10.0,Calm,Calm,-,N/A,,Clear,0,2013-09-10 03:25:00
11:45 PM,62.6,60.8,94,30.17,10.0,Calm,Calm,-,N/A,,Clear,0,2013-09-10 03:45:00